, AK

(GMT )
Annette Island

Weather History for PANT - January, 2013

Change the Weather History Date:

Thursday, January 17, 2013

  Actual Average Record
Temperature  
Mean Temperature 44 °F 37 °F  
Max Temperature 45 °F 42 °F 56 °F (2009)
Min Temperature 43 °F 32 °F 3 °F (2012)
Degree Days  
Heating Degree Days 21 28  
Month to date heating degree days 436 476  
Since 1 July heating degree days 3479 3387  
Cooling Degree Days 0    
Month to date cooling degree days 0  
Year to date cooling degree days 0  
Moisture  
Dew Point 42 °F    
Average Humidity 0    
Maximum Humidity 0    
Minimum Humidity 0    
Precipitation  
Precipitation 0.56 in 0.37 in 2.13 in (1956)
Month to date precipitation 4.69 5.98  
Year to date precipitation 4.69 5.98  
Snow  
Snow 0.00 in 0.20 in 8.70 in (1968)
Month to date snowfall T 4.3  
Since 1 July snowfall 11.4 16.0  
Snow Depth 0.00 in    
Sea Level Pressure  
Sea Level Pressure 29.93 in    
Wind  
Wind Speed 13 mph (South)    
Max Wind Speed 28 mph    
Max Gust Speed 45 mph    
Visibility 5 miles    
Events Rain    
T = Trace of Precipitation, MM = Missing Value Source: NWS Daily Summary

Daily Weather History Graph

Daily Weather History Graph

Search for Another Location

Airport or City:

Trip Planner

Search our weather history database for the weather conditions in past years. The results will help you decide how hot, cold, wet, or windy it might be!

Date:

Astronomy

Jan. 17, 2013 Rise Set
Actual Time 7:59 AM AKST 3:54 PM AKST
Civil Twilight 7:16 AM AKST 4:36 PM AKST
Nautical Twilight 6:31 AM AKST 5:22 PM AKST
Astronomical Twilight 5:47 AM AKST 6:05 PM AKST
Moon 9:54 AM AKST (1/17) No Moon Set
Length of Visible Light 9h 20m
Length of Day
7h 54m
Waxing Crescent, 39% of the Moon is Illuminated
Jan 17
Waxing Crescent
Jan 18
First Quarter
Jan 26
Full
Feb 3
Last Quarter
Feb 9
New

Hourly Weather History & Observations

Time (AKST) Temp. Windchill Dew Point Humidity Pressure Visibility Wind Dir Wind Speed Gust Speed Precip Events Conditions
12:53 AM 45.0 °F 38.5 °F 43.0 °F 93% 30.04 in 5.0 mi SSE 13.8 mph 28.8 mph 0.04 in Rain Light Rain
1:53 AM 44.1 °F 36.5 °F 43.0 °F 96% 30.01 in 4.0 mi SSE 17.3 mph 33.4 mph 0.02 in Rain Light Rain
3:36 AM 44.6 °F 36.6 °F 41.0 °F 87% 29.93 in 10.0 mi SSE 19.6 mph 43.7 mph 0.00 in Rain Light Rain
3:53 AM 45.0 °F 36.2 °F 39.9 °F 82% 29.92 in 10.0 mi SSE 24.2 mph 40.3 mph 0.00 in   Overcast
4:11 AM 44.6 °F 36.6 °F 39.2 °F 81% 29.91 in 10.0 mi SSE 19.6 mph 40.3 mph N/A   Overcast
4:41 AM 44.6 °F 36.6 °F 41.0 °F 87% 29.91 in 7.0 mi SSE 19.6 mph 34.5 mph 0.01 in Rain Light Rain
4:53 AM 44.1 °F 35.9 °F 41.0 °F 89% 29.92 in 6.0 mi SSE 19.6 mph 35.7 mph 0.02 in Rain Light Rain
5:13 AM 44.6 °F 37.2 °F 42.8 °F 93% 29.92 in 4.0 mi South 17.3 mph 33.4 mph 0.05 in Rain Rain
5:20 AM 44.6 °F 36.9 °F 41.0 °F 87% 29.92 in 4.0 mi South 18.4 mph 33.4 mph 0.07 in Rain Rain
5:30 AM 44.6 °F 37.4 °F 42.8 °F 93% 29.91 in 4.0 mi SSE 16.1 mph 32.2 mph 0.09 in Rain Light Rain
5:53 AM 44.1 °F 36.5 °F 41.0 °F 89% 29.89 in 5.0 mi SSE 17.3 mph 34.5 mph 0.11 in Rain Light Rain
6:49 AM 44.6 °F 37.2 °F 42.8 °F 93% 29.87 in 2.5 mi SSE 17.3 mph 29.9 mph 0.05 in Rain Light Rain
6:53 AM 44.1 °F 36.5 °F 42.1 °F 93% 29.88 in 2.5 mi SSE 17.3 mph 29.9 mph 0.06 in Rain Light Rain
7:53 AM 44.1 °F 37.7 °F 42.1 °F 93% 29.90 in 3.0 mi South 12.7 mph 27.6 mph 0.06 in Rain Light Rain
8:49 AM 44.6 °F 37.8 °F 42.8 °F 93% 29.91 in 2.5 mi South 15.0 mph 25.3 mph 0.04 in Rain Light Rain
8:53 AM 44.1 °F 37.4 °F 43.0 °F 96% 29.91 in 2.5 mi South 13.8 mph 25.3 mph 0.04 in Rain Light Rain
9:12 AM 44.6 °F 37.4 °F 42.8 °F 93% 29.91 in 3.0 mi SSE 16.1 mph 28.8 mph 0.01 in Rain Light Rain
9:53 AM 45.0 °F 38.2 °F 43.0 °F 93% 29.92 in 4.0 mi South 15.0 mph 27.6 mph 0.03 in Rain Light Rain
10:33 AM 44.6 °F 37.8 °F 42.8 °F 93% 29.92 in 4.0 mi South 15.0 mph 24.2 mph 0.01 in Rain Light Rain
10:48 AM 44.6 °F 38.4 °F 42.8 °F 93% 29.93 in 1.8 mi South 12.7 mph 26.5 mph 0.03 in Rain Rain
10:53 AM 45.0 °F 39.7 °F 43.0 °F 93% 29.94 in 1.2 mi South 10.4 mph 21.9 mph 0.06 in Rain Heavy Rain
11:04 AM 44.6 °F 38.4 °F 42.8 °F 93% 29.94 in 3.0 mi SSW 12.7 mph 24.2 mph 0.04 in Rain Light Rain
11:08 AM 44.6 °F 38.4 °F 42.8 °F 93% 29.94 in 3.0 mi South 12.7 mph 23.0 mph 0.04 in Rain Light Rain
11:30 AM 44.6 °F 40.2 °F 42.8 °F 93% 29.94 in 2.5 mi SSW 8.1 mph 18.4 mph 0.07 in Rain Light Rain
11:38 AM 44.6 °F 40.2 °F 42.8 °F 93% 29.94 in 4.0 mi SSW 8.1 mph 18.4 mph 0.07 in Rain Light Rain
11:43 AM 44.6 °F 40.2 °F 42.8 °F 93% 29.94 in 3.0 mi SSW 8.1 mph 17.3 mph 0.07 in Rain Light Rain
11:53 AM 44.1 °F 38.6 °F 42.1 °F 93% 29.95 in 6.0 mi South 10.4 mph 20.7 mph 0.08 in Rain Light Rain
12:53 PM 44.1 °F 39.5 °F 42.1 °F 93% 29.94 in 9.0 mi South 8.1 mph 17.3 mph 0.00 in Rain Light Rain
1:37 PM 44.6 °F 40.2 °F 42.8 °F 93% 29.93 in 5.0 mi South 8.1 mph - 0.01 in Rain Light Rain
1:53 PM 44.1 °F 39.5 °F 42.1 °F 93% 29.94 in 7.0 mi SSW 8.1 mph 17.3 mph 0.01 in Rain Light Rain
2:10 PM 42.8 °F 39.3 °F 42.8 °F 100% 29.93 in 2.0 mi Variable 5.8 mph - 0.01 in Rain Light Rain
2:28 PM 42.8 °F 38.6 °F 42.8 °F 100% 29.93 in 2.0 mi Variable 6.9 mph 17.3 mph 0.02 in Rain Light Rain
2:39 PM 42.8 °F 39.3 °F 42.8 °F 100% 29.93 in 4.0 mi SSW 5.8 mph - 0.02 in Rain Light Rain
2:53 PM 43.0 °F 38.8 °F 42.1 °F 97% 29.94 in 5.0 mi Variable 6.9 mph 16.1 mph 0.02 in Rain Light Rain
3:00 PM 42.8 °F 38.6 °F 42.8 °F 100% 29.93 in 1.8 mi Variable 6.9 mph - 0.01 in Rain Light Rain
3:07 PM 42.8 °F 37.5 °F 42.8 °F 100% 29.94 in 1.8 mi SSW 9.2 mph - 0.01 in Rain Light Rain
3:23 PM 42.8 °F 38.0 °F 42.8 °F 100% 29.93 in 1.8 mi SSW 8.1 mph - 0.03 in Rain Light Rain
3:33 PM 42.8 °F 39.3 °F 42.8 °F 100% 29.93 in 2.0 mi Variable 5.8 mph - 0.03 in Rain Light Rain
3:41 PM 42.8 °F 38.0 °F 42.8 °F 100% 29.93 in 1.8 mi SSW 8.1 mph - 0.04 in Rain Light Rain
3:53 PM 44.1 °F 40.1 °F 42.1 °F 93% 29.93 in 4.0 mi South 6.9 mph - 0.05 in Rain Light Rain
4:20 PM 44.6 °F 40.2 °F 42.8 °F 93% 29.92 in 4.0 mi South 8.1 mph 16.1 mph 0.01 in Rain Light Rain
4:53 PM 43.0 °F 37.7 °F 42.1 °F 97% 29.92 in 10.0 mi SSW 9.2 mph 18.4 mph 0.02 in Rain Light Rain
5:53 PM 43.0 °F 36.8 °F 41.0 °F 93% 29.91 in 8.0 mi SSW 11.5 mph 17.3 mph 0.01 in Rain Light Rain
6:13 PM 42.8 °F 37.0 °F 41.0 °F 93% 29.92 in 10.0 mi SSW 10.4 mph 18.4 mph 0.00 in   Overcast
6:29 PM 42.8 °F 37.5 °F 41.0 °F 93% 29.92 in 8.0 mi SSW 9.2 mph 19.6 mph 0.00 in Rain Light Rain
6:43 PM 42.8 °F 36.6 °F 42.8 °F 100% 29.92 in 4.0 mi SSW 11.5 mph 18.4 mph 0.01 in Rain Light Rain
6:53 PM 43.0 °F 38.2 °F 42.1 °F 97% 29.93 in 5.0 mi SSW 8.1 mph 20.7 mph 0.02 in Rain Light Rain
7:35 PM 42.8 °F 38.6 °F 42.8 °F 100% 29.93 in 10.0 mi SSW 6.9 mph - 0.00 in Rain Light Rain
7:44 PM 42.8 °F 38.0 °F 41.0 °F 93% 29.94 in 10.0 mi SSW 8.1 mph - 0.00 in Rain Light Rain
7:53 PM 43.0 °F 39.5 °F 41.0 °F 93% 29.94 in 10.0 mi Variable 5.8 mph - 0.00 in Rain Light Rain
8:51 PM 42.8 °F 38.6 °F 41.0 °F 93% 29.95 in 9.0 mi SSW 6.9 mph - 0.02 in Rain Light Rain
8:53 PM 43.0 °F 40.3 °F 41.0 °F 93% 29.95 in 8.0 mi Variable 4.6 mph - 0.02 in Rain Light Rain
9:53 PM 42.1 °F 39.2 °F 41.0 °F 96% 29.96 in 10.0 mi Variable 4.6 mph - 0.01 in   Overcast
10:53 PM 42.1 °F 38.4 °F 39.9 °F 92% 29.99 in 10.0 mi SSW 5.8 mph - N/A   Overcast
11:53 PM 42.1 °F 38.4 °F 39.9 °F 92% 30.01 in 10.0 mi SSW 5.8 mph - N/A   Overcast